Location: Rodson Ranch
(38.7188°N, 119.3202°W)
Time: 17:07:06
(UTC+00:00)

ADEOS - Pass Details

Date: 29 October 2020
Orbit: 793 x 793 km, 98.9° (Epoch: 22 November)

Event Time Altitude Azimuth Distance (km) Brightness Sun altitude
Rises 12:40:52 0° 11° (N) 3,302 6.9 -20.2°
Reaches altitude 10° 12:43:12 10° 10° (N) 2,369 6.1 -19.7°
Maximum altitude 12:48:25 74° 286° (WNW) 829 3.4 -18.7°
Drops below altitude 10° 12:53:35 10° 202° (SSW) 2,353 5.8 -17.7°
Sets 12:55:54 0° 201° (SSW) 3,279 6.6 -17.2°
